Salida, CO

9:43 PM MDT on March 26, 2017 (GMT -0600)
Salida

Weather History for KANK - February, 2013

Change the Weather History Date:

Friday, February 15, 2013

  Actual Average (KGUC) Record (KGUC)
Temperature  
Mean Temperature 26 °F -  
Max Temperature 39 °F 28 °F 46 °F (2014)
Min Temperature 12 °F 4 °F -16 °F (2004)
Degree Days  
Heating Degree Days 40    
Moisture  
Dew Point 4 °F    
Average Humidity 47    
Maximum Humidity 88    
Minimum Humidity 14    
Precipitation  
Precipitation 0.00 in - - ()
Sea Level Pressure  
Sea Level Pressure 30.31 in    
Wind  
Wind Speed 6 mph (NW)    
Max Wind Speed 17 mph    
Max Gust Speed 30 mph    
Visibility 10 miles    
Events      
Averages and records for this station are not official NWS values.
T = Trace of Precipitation, MM = Missing Value Source: NWS Daily Summary

Daily Weather History Graph

Daily Weather History Graph

Search for Another Location

Airport or City:

Trip Planner

Search our weather history database for the weather conditions in past years. The results will help you decide how hot, cold, wet, or windy it might be!

Date:

Astronomy

Feb. 15, 2013 Rise Set
Actual Time 6:54 AM MST 5:42 PM MST
Civil Twilight 6:27 AM MST 6:09 PM MST
Nautical Twilight 5:56 AM MST 6:40 PM MST
Astronomical Twilight 5:25 AM MST 7:11 PM MST
Moon 9:37 AM MST (2/15) 11:41 PM MST (2/15)
Length of Visible Light 11h 42m
Length of Day
10h 48m
Waxing Crescent, 31% of the Moon is Illuminated
Feb 15
Waxing Crescent
Feb 17
First Quarter
Feb 25
Full
Mar 4
Last Quarter
Mar 11
New

Hourly Weather History & Observations

Time (MST) Temp. Windchill Dew Point Humidity Pressure Visibility Wind Dir Wind Speed Gust Speed Precip Events Conditions
12:15 AM 19.4 °F 7.9 °F 14.5 °F 81% 30.27 in 10.0 mi SE 10.4 mph - N/A   Clear
12:35 AM 19.4 °F 9.5 °F 14.5 °F 81% 30.27 in 10.0 mi SE 8.1 mph - N/A   Clear
12:55 AM 18.5 °F 8.4 °F 14.2 °F 83% 30.27 in 10.0 mi SE 8.1 mph - N/A   Clear
1:35 AM 18.0 °F 12.7 °F 13.8 °F 84% 30.27 in 10.0 mi East 3.5 mph - N/A   Clear
1:55 AM 15.8 °F 7.2 °F 12.0 °F 85% 30.27 in 10.0 mi South 5.8 mph - N/A   Clear
2:15 AM 15.6 °F - 12.2 °F 86% 30.26 in 10.0 mi Calm Calm - N/A   Clear
2:35 AM 14.5 °F 8.8 °F 10.8 °F 85% 30.26 in 10.0 mi NNE 3.5 mph - N/A   Clear
2:55 AM 14.0 °F - 11.1 °F 88% 30.27 in 10.0 mi Calm Calm - N/A   Clear
3:15 AM 12.9 °F - 9.9 °F 88% 30.25 in 10.0 mi Calm Calm - N/A   Clear
3:35 AM 13.5 °F - 10.4 °F 88% 30.25 in 10.0 mi Calm Calm - N/A   Clear
3:55 AM 12.9 °F - 10.0 °F 88% 30.25 in 10.0 mi Calm Calm - N/A   Clear
4:15 AM 15.6 °F 7.0 °F 10.0 °F 79% 30.24 in 10.0 mi NW 5.8 mph - N/A   Clear
4:35 AM 12.9 °F 2.6 °F 10.0 °F 88% 30.25 in 10.0 mi North 6.9 mph - N/A   Clear
4:55 AM 14.2 °F - 10.6 °F 86% 30.25 in 10.0 mi Calm Calm - N/A   Clear
5:15 AM 14.9 °F 7.5 °F 10.4 °F 82% 30.25 in 10.0 mi WNW 4.6 mph - N/A   Clear
5:35 AM 15.1 °F 6.4 °F 9.9 °F 80% 30.26 in 10.0 mi NNW 5.8 mph - N/A   Clear
5:55 AM 15.6 °F - 9.0 °F 75% 30.27 in 10.0 mi Calm Calm - N/A   Clear
6:15 AM 14.7 °F - 8.4 °F 76% 30.28 in 10.0 mi Calm Calm - N/A   Clear
6:55 AM 21.9 °F 11.7 °F 7.5 °F 54% 30.27 in 10.0 mi WNW 9.2 mph - N/A   Clear
7:15 AM 12.6 °F 6.5 °F 4.1 °F 69% 30.27 in 10.0 mi SSE 3.5 mph - N/A   Clear
7:35 AM 12.4 °F 4.6 °F 7.7 °F 82% 30.29 in 10.0 mi ENE 4.6 mph - N/A   Clear
7:55 AM 20.1 °F 15.2 °F 10.8 °F 67% 30.29 in 10.0 mi WSW 3.5 mph - N/A   Clear
8:15 AM 20.8 °F - 10.8 °F 65% 30.30 in 10.0 mi Calm Calm - N/A   Clear
8:35 AM 23.9 °F - 11.1 °F 58% 30.30 in 10.0 mi Calm Calm - N/A   Clear
8:55 AM 22.1 °F - 12.0 °F 65% 30.31 in 10.0 mi Calm Calm - N/A   Scattered Clouds
9:15 AM 23.2 °F - 13.1 °F 65% 30.31 in 10.0 mi Calm Calm - N/A   Scattered Clouds
9:35 AM 26.2 °F - 13.3 °F 58% 30.31 in 10.0 mi Calm Calm - N/A   Overcast
9:55 AM 30.6 °F 24.7 °F 10.6 °F 43% 30.30 in 10.0 mi NNE 5.8 mph - N/A   Mostly Cloudy
10:15 AM 30.9 °F - 5.2 °F 34% 30.30 in 10.0 mi Calm Calm - N/A   Mostly Cloudy
10:55 AM 34.0 °F - 2.5 °F 26% 30.30 in 10.0 mi Calm Calm - N/A   Mostly Cloudy
11:15 AM 35.6 °F 29.9 °F 0.3 °F 23% 30.30 in 10.0 mi NW 6.9 mph - N/A   Scattered Clouds
11:35 AM 35.1 °F 28.6 °F -1.8 °F 21% 30.29 in 10.0 mi North 8.1 mph 17.3 mph N/A   Clear
11:55 AM 36.3 °F 27.1 °F -4.7 °F 17% 30.29 in 10.0 mi NW 15.0 mph 25.3 mph N/A   Scattered Clouds
12:15 PM 37.8 °F 29.0 °F -4.4 °F 17% 30.29 in 10.0 mi NW 15.0 mph 23.0 mph N/A   Scattered Clouds
12:35 PM 37.4 °F 27.8 °F -5.1 °F 16% 30.29 in 10.0 mi WNW 17.3 mph 24.2 mph N/A   Scattered Clouds
12:55 PM 37.8 °F 30.2 °F -5.3 °F 16% 30.27 in 10.0 mi North 11.5 mph 27.6 mph N/A   Clear
1:15 PM 37.8 °F 28.6 °F -5.8 °F 16% 30.27 in 10.0 mi North 16.1 mph 23.0 mph N/A   Clear
1:35 PM 38.5 °F 30.7 °F -6.0 °F 15% 30.27 in 10.0 mi NNW 12.7 mph 19.6 mph N/A   Clear
1:55 PM 38.1 °F 28.8 °F -7.1 °F 14% 30.27 in 10.0 mi NNW 17.3 mph 29.9 mph N/A   Clear
2:15 PM 38.7 °F 32.4 °F -6.2 °F 15% 30.27 in 10.0 mi North 9.2 mph 20.7 mph N/A   Clear
2:35 PM 38.3 °F 32.5 °F -8.1 °F 14% 30.28 in 10.0 mi North 8.1 mph - N/A   Clear
2:55 PM 39.4 °F 31.1 °F -7.1 °F 14% 30.29 in 10.0 mi NNW 15.0 mph 23.0 mph N/A   Clear
3:15 PM 38.5 °F 32.1 °F -6.5 °F 15% 30.30 in 10.0 mi NW 9.2 mph 19.6 mph N/A   Clear
3:35 PM 37.4 °F - 0.1 °F 21% 30.30 in 10.0 mi Calm Calm - N/A   Clear
3:55 PM 38.3 °F 30.9 °F -4.0 °F 17% 30.30 in 10.0 mi North 11.5 mph 19.6 mph N/A   Clear
4:15 PM 37.8 °F 30.2 °F -3.5 °F 17% 30.30 in 10.0 mi North 11.5 mph 17.3 mph N/A   Clear
4:35 PM 36.5 °F 33.9 °F -3.3 °F 18% 30.31 in 10.0 mi NNW 3.5 mph - N/A   Clear
4:55 PM 36.3 °F 28.9 °F -2.9 °F 19% 30.32 in 10.0 mi WNW 10.4 mph 16.1 mph N/A   Clear
5:15 PM 34.7 °F 27.5 °F -1.7 °F 21% 30.33 in 10.0 mi WNW 9.2 mph - N/A   Clear
5:35 PM 33.3 °F 25.1 °F -1.1 °F 23% 30.34 in 10.0 mi NW 10.4 mph 20.7 mph N/A   Clear
5:55 PM 32.2 °F - -1.1 °F 24% 30.34 in 10.0 mi Calm Calm - N/A   Clear
6:15 PM 31.8 °F - -0.2 °F 25% 30.35 in 10.0 mi Calm Calm - N/A   Clear
6:35 PM 30.2 °F 23.4 °F 1.4 °F 29% 30.35 in 10.0 mi North 6.9 mph - N/A   Clear
6:55 PM 30.7 °F 26.0 °F 2.3 °F 30% 30.36 in 10.0 mi NW 4.6 mph - N/A   Clear
7:15 PM 30.7 °F 24.9 °F 2.5 °F 30% 30.37 in 10.0 mi NW 5.8 mph - N/A   Clear
7:35 PM 30.2 °F 21.3 °F 1.6 °F 30% 30.37 in 10.0 mi NNW 10.4 mph - N/A   Clear
7:55 PM 29.3 °F 20.2 °F 3.6 °F 33% 30.38 in 10.0 mi WNW 10.4 mph - N/A   Clear
8:15 PM 28.9 °F 19.8 °F 5.9 °F 38% 30.38 in 10.0 mi WNW 10.4 mph - N/A   Clear
8:35 PM 28.2 °F 20.2 °F 6.4 °F 40% 30.38 in 10.0 mi WNW 8.1 mph - N/A   Clear
8:55 PM 28.4 °F 19.7 °F 5.9 °F 39% 30.37 in 10.0 mi NW 9.2 mph - N/A   Clear
9:15 PM 27.9 °F 19.1 °F 5.9 °F 39% 30.38 in 10.0 mi WNW 9.2 mph - N/A   Clear
9:35 PM 27.3 °F 19.1 °F 5.9 °F 40% 30.38 in 10.0 mi WNW 8.1 mph - N/A   Clear
9:55 PM 27.7 °F 19.6 °F 5.9 °F 40% 30.38 in 10.0 mi WNW 8.1 mph - N/A   Clear
10:15 PM 25.3 °F 17.6 °F 5.9 °F 44% 30.38 in 10.0 mi WSW 6.9 mph - N/A   Clear
10:35 PM 25.3 °F 17.6 °F 4.8 °F 42% 30.38 in 10.0 mi West 6.9 mph - N/A   Clear
10:55 PM 23.0 °F 13.9 °F 5.2 °F 47% 30.39 in 10.0 mi West 8.1 mph - N/A   Clear
11:15 PM 24.1 °F 15.2 °F 5.7 °F 46% 30.39 in 10.0 mi WNW 8.1 mph - N/A   Clear
11:35 PM 24.6 °F 16.7 °F 5.9 °F 45% 30.38 in 10.0 mi NW 6.9 mph - N/A   Clear
11:55 PM 25.7 °F 15.7 °F 6.4 °F 44% 30.37 in 10.0 mi NNW 10.4 mph - N/A   Clear